Wind_Speed
6 8 9 17 10 10 19 8 9 14 24 16 13 19 22 22 23 23 23 25 29 30 30 32 35 39 41 42 44 46 51 53 54 54 56 53 47 50 56 57 44 48 42 40
9 10 9 12 11 11 9 5 11 12 18 21 17 18 19 25 24 22 23 27 25 28 30 32 35 37 40 43 45 48 52 54 55 53 52 56 57 54 57 48 46 36 36 40
13 22 13 10 9 4 11 14 14 16 20 19 17 20 24 37 32 28 25 26 32 25 30 33 36 39 42 44 46 48 51 52 52 52 52 47 50 42 51 41 39 40 43 41
9 14 10 7 10 9 3 23 20 23 23 21 18 17 20 33 43 42 30 28 31 30 32 33 36 39 40 44 47 49 50 52 51 53 57 50 58 47 47 44 46 43 43 41
19 16 7 5 17 15 18 22 25 24 23 21 18 5 18 18 30 11 32 33 32 32 33 35 37 39 41 44 46 46 47 50 55 55 50 56 47 45 43 44 44 45 45 45
16 13 15 18 19 22 23 22 24 19 16 17 15 19 17 32 32 45 41 35 33 33 33 35 36 39 42 44 45 48 50 51 39 50 57 54 49 48 45 46 49 50 49 49
12 10 25 20 19 15 22 25 23 13 12 10 22 30 28 40 36 38 36 33 33 35 35 36 38 40 43 45 47 47 46 50 56 56 54 50 49 50 54 52 52 53 51 51
11 15 22 27 25 26 24 24 20 21 19 20 22 24 32 32 43 41 31 34 35 36 36 39 41 43 44 44 46 48 51 53 54 54 50 48 51 54 60 60 57 54 51 50
17 14 24 30 22 27 26 21 26 27 17 17 14 24 32 29 42 13 37 37 36 37 40 40 41 41 42 45 47 49 50 51 52 53 55 54 57 58 58 61 60 56 55 54
21 22 20 30 31 27 31 33 17 15 21 18 17 24 37 36 34 53 49 36 37 38 38 38 39 39 42 44 47 49 50 50 52 54 56 58 65 65 63 58 57 58 57 53
27 27 24 27 22 32 31 21 33 32 23 19 20 21 40 39 39 41 41 38 39 42 39 39 40 43 44 45 47 51 56 59 58 61 65 63 67 64 60 60 59 58 52 44
34 30 31 30 32 34 31 29 31 31 27 24 26 27 38 39 35 37 38 39 41 38 38 40 42 44 47 49 48 56 68 64 62 59 60 60 62 63 61 56 47 44 41 39
36 33 34 27 27 27 28 27 28 28 31 25 22 31 34 29 37 38 38 38 36 38 40 40 42 45 47 48 53 58 61 63 66 67 65 60 55 50 45 42 40 38 35 33
34 31 30 27 24 27 26 26 23 28 28 23 21 32 36 39 41 35 33 35 38 38 40 43 43 44 46 49 53 60 64 63 60 57 53 49 44 40 36 37 34 30 29 27
36 32 31 30 30 30 24 24 26 30 26 23 21 32 33 29 31 32 35 37 37 39 40 41 42 43 48 53 54 58 57 51 47 41 34 29 27 24 23 23 24 23 24 25
32 30 30 29 26 21 22 26 26 28 28 26 25 25 27 29 29 35 33 36 37 40 40 40 42 48 47 48 48 40 45 43 36 27 28 26 22 19 19 19 19 23 23 20
25 24 23 20 19 19 18 22 22 27 26 23 27 23 25 29 31 30 33 37 36 37 38 41 44 42 43 42 34 37 39 37 33 26 22 18 14 15 14 14 17 20 20 19
17 17 16 17 16 15 17 18 19 20 22 22 16 22 25 27 31 30 32 34 35 36 39 40 40 41 42 28 29 34 34 32 29 25 21 18 15 13 14 15 17 16 13 12
12 11 12 14 14 19 18 19 18 20 26 25 24 25 26 28 34 34 33 32 33 36 38 35 37 39 31 23 26 30 30 28 25 23 21 18 16 16 15 14 13 14 13 11
8 10 13 15 16 17 19 21 24 24 25 24 26 28 29 30 28 35 33 33 34 35 32 34 33 35 25 21 23 28 28 25 23 21 20 18 17 17 17 17 15 14 15 13
12 14 17 17 18 22 21 22 24 25 24 26 29 30 30 29 29 29 31 30 33 28 30 32 31 31 23 19 21 25 26 20 19 19 20 19 18 17 18 20 22 21 23 23
15 17 17 20 21 23 24 27 24 27 28 29 28 28 28 27 28 28 29 31 25 26 29 31 29 27 21 18 19 20 16 18 18 19 18 18 20 23 25 25 26 26 27 29
16 17 20 21 24 24 25 25 26 27 28 27 27 27 27 26 26 28 28 24 21 25 28 28 23 20 17 13 16 16 17 18 19 22 23 24 24 24 24 25 28 30 31 34
17 19 21 23 24 23 23 25 25 26 26 26 26 25 24 24 26 26 25 17 20 25 29 22 15 14 14 14 15 16 16 18 23 26 26 26 26 24 24 26 28 30 32 34
20 19 20 22 21 20 23 24 26 26 25 24 22 22 22 25 24 26 18 15 20 26 21 16 12 12 14 16 16 16 16 18 23 24 24 25 27 26 24 26 28 28 29 32
20 18 18 18 21 21 22 24 24 23 22 21 20 21 23 23 25 19 15 14 19 24 14 12 11 12 14 16 14 15 17 19 22 23 23 25 26 28 27 25 28 32 34 35
Wind_Direction
354 57 190 226 260 245 230 252 255 262 275 305 296 300 294 300 296 289 286 277 270 275 272 272 272 275 281 286 288 291 294 300 303 304 304 304 300 297 288 285 281 306 320 319
27 244 273 272 277 268 267 292 264 294 309 317 313 299 294 303 297 287 277 273 279 273 274 271 273 275 276 279 284 289 293 296 298 299 300 299 293 275 266 269 321 312 295 295
174 245 292 293 298 305 303 279 282 293 296 315 304 309 276 289 301 300 287 281 286 278 277 279 278 280 282 286 288 290 292 294 296 298 294 289 273 277 315 317 309 301 302 303
243 280 285 299 289 282 314 280 299 305 309 307 288 301 282 279 305 301 291 286 287 286 285 283 284 285 286 289 289 288 288 290 292 292 290 269 309 313 306 306 307 306 301 301
247 276 295 286 270 295 270 295 300 310 310 317 316 245 307 299 272 269 305 298 294 292 289 287 286 287 288 289 290 290 289 289 290 293 282 308 304 302 301 301 304 306 304 302
275 282 275 281 297 297 294 298 311 340 317 315 271 283 292 274 267 274 289 293 293 293 291 290 291 290 289 288 288 288 289 293 291 296 298 301 302 299 300 296 299 303 304 305
305 289 296 301 296 282 291 309 319 311 298 288 295 297 275 262 263 278 291 294 295 295 295 294 293 292 291 291 292 295 290 290 293 294 295 296 298 300 301 303 305 303 304 306
275 292 287 287 301 300 312 311 327 300 304 292 313 271 278 294 297 285 293 303 300 300 299 298 297 296 295 295 293 291 291 291 292 295 294 294 302 299 302 306 305 306 305 304
255 261 294 291 302 305 305 309 301 304 336 311 303 303 291 290 306 273 304 306 302 300 302 302 301 299 296 293 292 291 291 292 293 291 291 293 296 294 299 304 304 305 304 303
277 285 290 296 311 315 318 316 313 304 296 297 291 287 278 283 284 294 305 309 304 304 306 306 303 300 296 294 294 292 288 287 295 293 288 294 299 298 299 302 302 303 303 304
284 293 293 299 293 307 307 293 287 300 301 290 300 285 279 284 290 298 301 306 310 312 311 307 305 302 298 296 297 296 295 289 286 281 291 296 297 299 299 299 299 300 300 297
289 296 296 303 292 302 302 298 300 296 298 293 302 302 293 293 307 305 308 308 310 310 309 308 304 300 297 296 297 292 300 306 304 300 295 295 295 296 297 296 295 294 293 294
290 295 300 300 308 306 301 280 296 295 299 300 298 283 297 296 299 301 304 305 308 312 311 310 308 306 307 305 299 297 298 299 299 299 299 298 296 295 296 296 296 295 294 294
289 293 294 296 285 289 289 296 297 296 299 300 286 276 276 291 300 303 302 307 311 312 313 313 314 312 310 309 307 307 306 304 303 300 299 300 301 302 301 296 294 293 292 289
287 295 296 297 298 298 294 297 291 299 296 286 284 278 298 301 305 308 309 312 313 314 316 316 315 315 314 315 317 317 319 320 314 308 306 303 302 299 301 307 303 302 297 288
299 301 298 301 302 303 286 291 301 309 302 297 288 300 298 302 304 305 310 311 315 317 316 317 318 318 321 324 327 340 340 338 338 327 324 323 315 310 311 309 305 303 296 298
295 298 301 307 306 307 297 305 300 292 304 299 288 292 292 300 301 308 312 313 317 316 318 320 322 323 325 327 336 348 345 347 352 351 348 347 339 331 325 318 307 307 310 308
300 308 313 319 321 320 315 312 305 297 319 321 306 308 305 306 305 312 314 316 317 319 321 324 325 327 329 334 346 354 347 353 358 0 0 1 356 343 337 332 329 330 323 322
310 316 319 321 323 318 321 316 312 307 313 313 315 313 312 314 312 314 317 321 321 322 325 327 327 331 335 341 356 355 353 1 1 4 5 5 359 358 357 358 360 12 11 10
318 319 313 320 321 314 310 309 306 306 307 308 306 309 311 311 314 317 321 324 322 326 328 327 331 338 338 339 355 352 352 356 3 9 13 15 16 21 26 18 19 23 29 35
309 317 320 323 314 314 312 309 304 305 302 301 303 306 308 310 315 318 320 319 325 329 329 332 333 338 335 334 346 349 347 359 17 24 24 23 21 25 37 51 53 55 57 60
307 312 316 312 310 308 308 306 305 303 303 304 307 308 312 316 318 319 319 324 328 327 332 334 338 339 337 333 350 359 12 20 24 31 40 49 56 59 59 61 63 62 67 70
317 318 309 306 304 305 306 306 308 308 309 310 311 315 317 317 317 319 323 329 328 334 335 336 345 349 358 15 32 15 21 33 47 62 63 66 68 69 69 69 68 71 78 81
328 315 309 310 309 311 311 311 312 313 312 313 315 316 317 318 318 322 329 326 332 340 339 343 358 5 15 21 31 27 37 60 71 73 71 72 75 77 76 80 81 79 81 85
325 318 314 312 310 319 313 311 313 314 315 317 318 318 317 318 322 329 329 321 337 341 344 358 10 17 31 25 30 45 62 73 80 78 76 76 79 83 80 81 85 88 88 88
321 319 317 310 307 308 308 311 313 315 318 318 318 317 318 324 329 329 326 322 338 342 355 15 30 29 27 24 49 71 80 80 84 82 80 82 82 83 86 90 93 92 94 94
Height
5892 5893 5898 5893 5892 5893 5893 5893 5893 5891 5882 5882 5880 5877 5872 5869 5866 5864 5861 5859 5856 5854 5852 5850 5846 5840 5834 5831 5826 5823 5816 5812 5808 5805 5802 5797 5796 5792 5790 5784 5779 5777 5773 5771
5894 5893 5891 5890 5889 5889 5889 5891 5890 5886 5879 5876 5875 5874 5871 5864 5860 5858 5855 5852 5851 5849 5845 5841 5837 5833 5830 5825 5821 5816 5811 5806 5801 5798 5795 5789 5783 5781 5775 5772 5771 5770 5768 5764
5893 5888 5888 5887 5886 5886 5889 5884 5881 5879 5876 5874 5874 5871 5868 5856 5854 5851 5848 5846 5840 5842 5838 5834 5829 5825 5821 5817 5812 5808 5803 5798 5793 5790 5785 5782 5774 5768 5765 5762 5763 5762 5756 5751
5889 5885 5885 5885 5884 5883 5887 5878 5876 5874 5872 5870 5869 5869 5865 5851 5844 5841 5839 5837 5834 5833 5830 5826 5822 5817 5814 5809 5804 5800 5796 5790 5786 5781 5775 5770 5764 5758 5757 5753 5751 5747 5744 5741
5886 5883 5883 5884 5879 5879 5877 5875 5872 5870 5868 5867 5865 5864 5861 5854 5840 5817 5832 5831 5827 5824 5822 5818 5814 5810 5806 5801 5796 5792 5787 5782 5777 5772 5760 5758 5756 5753 5749 5745 5743 5738 5734 5730
5880 5880 5879 5878 5877 5874 5871 5869 5868 5866 5869 5868 5858 5860 5864 5844 5840 5831 5831 5825 5821 5818 5814 5811 5807 5803 5798 5793 5788 5784 5780 5771 5762 5761 5755 5749 5747 5743 5738 5735 5732 5728 5723 5718
5881 5878 5874 5875 5873 5871 5866 5864 5863 5866 5866 5868 5856 5854 5849 5835 5834 5828 5824 5820 5815 5811 5808 5803 5799 5795 5790 5784 5778 5774 5768 5762 5755 5751 5746 5742 5738 5733 5728 5723 5718 5714 5709 5705
5883 5881 5872 5866 5868 5865 5863 5861 5860 5856 5857 5856 5853 5847 5834 5828 5826 5820 5820 5815 5809 5805 5801 5796 5791 5786 5780 5775 5769 5764 5758 5751 5746 5740 5735 5730 5725 5720 5713 5709 5706 5700 5695 5690
5874 5876 5868 5862 5864 5860 5859 5858 5855 5850 5850 5851 5851 5838 5834 5825 5813 5805 5813 5808 5802 5797 5792 5788 5783 5777 5772 5766 5760 5754 5748 5741 5735 5729 5723 5717 5712 5707 5701 5696 5690 5685 5680 5674
5867 5866 5865 5859 5856 5852 5850 5848 5848 5848 5844 5843 5845 5839 5827 5823 5816 5801 5798 5802 5795 5789 5785 5779 5773 5768 5762 5756 5750 5744 5737 5730 5723 5716 5709 5702 5697 5692 5687 5681 5675 5671 5667 5662
5860 5860 5861 5857 5854 5850 5849 5848 5840 5838 5837 5836 5834 5833 5816 5816 5812 5802 5796 5792 5785 5781 5776 5770 5765 5759 5753 5747 5741 5733 5725 5716 5708 5700 5691 5685 5681 5676 5672 5668 5663 5659 5654 5651
5851 5853 5851 5852 5846 5843 5841 5838 5833 5830 5829 5826 5823 5822 5809 5805 5802 5795 5790 5785 5779 5774 5768 5762 5756 5750 5744 5737 5730 5721 5710 5700 5691 5684 5678 5671 5668 5664 5659 5654 5650 5647 5643 5640
5845 5847 5844 5845 5842 5835 5834 5832 5828 5823 5820 5819 5819 5811 5806 5793 5796 5789 5782 5778 5772 5767 5761 5754 5748 5741 5733 5727 5718 5708 5698 5687 5677 5668 5660 5656 5651 5648 5644 5640 5638 5635 5633 5631
5841 5841 5838 5836 5836 5832 5827 5824 5822 5816 5813 5814 5815 5806 5798 5792 5786 5782 5777 5771 5765 5759 5753 5746 5739 5732 5724 5715 5706 5695 5683 5670 5659 5650 5644 5640 5638 5634 5632 5629 5627 5625 5623 5621
5833 5832 5829 5828 5826 5823 5822 5820 5816 5809 5806 5806 5803 5794 5790 5786 5780 5775 5769 5764 5758 5752 5746 5739 5731 5723 5715 5706 5695 5683 5668 5655 5642 5635 5631 5629 5627 5625 5623 5621 5619 5617 5615 5613
5825 5824 5822 5820 5818 5817 5817 5812 5806 5804 5799 5796 5792 5788 5784 5780 5775 5770 5765 5759 5753 5745 5738 5732 5724 5715 5706 5698 5687 5675 5663 5650 5637 5629 5624 5621 5619 5619 5617 5616 5614 5612 5609 5606
5819 5817 5816 5814 5812 5810 5809 5806 5802 5798 5794 5790 5787 5784 5779 5775 5770 5765 5759 5753 5747 5740 5732 5725 5717 5709 5700 5691 5682 5671 5662 5650 5638 5629 5623 5619 5617 5615 5613 5611 5609 5607 5605 5602
5815 5813 5812 5809 5807 5806 5804 5800 5797 5794 5790 5785 5781 5778 5774 5770 5763 5760 5754 5748 5741 5733 5726 5719 5711 5702 5694 5686 5678 5669 5662 5651 5641 5632 5625 5620 5617 5613 5611 5609 5607 5604 5601 5597
5811 5810 5808 5806 5804 5802 5798 5795 5793 5790 5786 5781 5777 5773 5769 5764 5757 5753 5748 5742 5735 5728 5721 5714 5706 5698 5689 5683 5676 5669 5661 5651 5643 5635 5628 5623 5618 5615 5612 5609 5606 5604 5601 5597
5809 5808 5807 5804 5801 5798 5796 5793 5789 5785 5781 5777 5773 5768 5764 5760 5756 5746 5741 5736 5730 5724 5717 5710 5702 5694 5686 5681 5674 5668 5661 5653 5645 5638 5632 5626 5622 5618 5615 5612 5609 5606 5601 5597
5806 5805 5803 5800 5798 5794 5791 5788 5784 5781 5779 5772 5768 5764 5759 5755 5750 5744 5737 5732 5726 5720 5714 5705 5698 5691 5684 5679 5673 5667 5661 5654 5648 5642 5636 5631 5626 5623 5620 5617 5613 5610 5607 5603
5804 5802 5800 5797 5794 5791 5786 5782 5780 5776 5771 5767 5763 5759 5754 5750 5744 5739 5733 5728 5722 5717 5710 5703 5695 5688 5682 5678 5672 5667 5662 5656 5650 5645 5640 5636 5632 5629 5626 5624 5621 5618 5615 5612
5800 5799 5796 5794 5789 5785 5781 5777 5773 5769 5766 5762 5758 5754 5749 5744 5739 5734 5729 5724 5720 5714 5707 5700 5694 5688 5682 5677 5672 5669 5664 5659 5654 5650 5646 5642 5639 5637 5635 5633 5630 5628 5625 5623
5797 5794 5791 5787 5783 5780 5776 5772 5769 5765 5761 5757 5753 5749 5744 5740 5735 5731 5726 5722 5718 5712 5705 5698 5694 5689 5684 5679 5674 5672 5667 5663 5659 5656 5653 5650 5648 5645 5644 5643 5640 5639 5637 5635
5792 5789 5786 5782 5778 5775 5770 5768 5764 5761 5757 5753 5749 5745 5740 5736 5732 5727 5723 5720 5716 5710 5703 5698 5695 5691 5686 5682 5678 5674 5672 5669 5665 5663 5660 5658 5656 5655 5653 5651 5650 5649 5648 5647
5788 5785 5782 5779 5775 5772 5768 5764 5760 5757 5753 5749 5746 5741 5737 5733 5728 5724 5721 5718 5714 5709 5704 5700 5697 5693 5689 5685 5682 5679 5676 5674 5672 5670 5668 5666 5664 5663 5661 5659 5659 5659 5658 5657